[Iaude] MPEC U25: 2016 UE [a=1.06,e=0.15,i=1.2,H=25.1]

mpec at si.edu mpec at si.edu
Thu Oct 20 10:16:15 EDT 2016


M.P.E.C. 2016-U25                                Issued 2016 Oct. 20, 14:11 UT
 
     The Minor Planet Electronic Circulars contain information on unusual
         minor planets and routine data on comets.  They are published
    on behalf of Division F of the International Astronomical Union by the
          Minor Planet Center, Smithsonian Astrophysical Observatory,
                          Cambridge, MA 02138, U.S.A.

             Prepared using the Tamkin Foundation Computer Network

                              MPC at CFA.HARVARD.EDU
            URL http://www.minorplanetcenter.net/    ISSN 1523-6714


                                    2016 UE
 
Observations:
     K16U00E* C2016 10 19.34352 02 06 10.54 +01 53 53.6          18.7 VqEU025G96
     K16U00E  C2016 10 19.34781 02 06 10.22 +01 53 36.9          19.0 VqEU025G96
     K16U00E  C2016 10 19.35210 02 06 09.92 +01 53 20.1          19.3 VqEU025G96
     K16U00E  C2016 10 19.42103 02 06 05.32 +01 48 49.5          18.5 VqEU025G96
     K16U00E  C2016 10 19.42437 02 06 05.12 +01 48 36.3          18.7 VqEU025G96
     K16U00E  C2016 10 19.42760 02 06 04.93 +01 48 23.7          19.0 VqEU025G96
     K16U00E  C2016 10 19.43073 02 06 04.76 +01 48 11.4          19.1 VqEU025G96
     K16U00E |C2016 10 19.55780 02 06 15.63 +01 43 35.7          18.8 RrEU025Q62
     K16U00E |C2016 10 19.56489 02 06 15.12 +01 43 08.2                rEU025Q62
     K16U00E |C2016 10 19.57198 02 06 14.58 +01 42 39.8                rEU025Q62
     K16U00E KC2016 10 20.08491 02 06 09.18 +01 02 57.9                qEU025J95
     K16U00E KC2016 10 20.09344 02 06 08.74 +01 02 22.1                qEU025J95
     K16U00E KC2016 10 20.10394 02 06 08.23 +01 01 37.9          19.1 RqEU025J95
     K16U00E  C2016 10 20.29201 02 06 15.18 +00 49 15.5                oEU025926
     K16U00E  C2016 10 20.30056 02 06 14.46 +00 48 38.8                oEU025926
     K16U00E  C2016 10 20.30685 02 06 13.97 +00 48 11.9                oEU025926
     K16U00E  C2016 10 20.32106 02 06 12.85 +00 47 06.8          18.5 VqEU025G96
     K16U00E  C2016 10 20.32436 02 06 12.57 +00 46 53.0          18.5 VqEU025G96
     K16U00E  C2016 10 20.32619 02 06 12.43 +00 46 45.1          18.5 VqEU025G96
     K16U00E  C2016 10 20.32881 02 06 12.21 +00 46 33.8          18.5 VqEU025G96
     K16U00E KC2016 10 20.52114 02 06 18.35 +00 36 40.0          19.2 VqEU025E23
     K16U00E KC2016 10 20.52878 02 06 17.78 +00 36 06.5          19.4 VqEU025E23
     K16U00E KC2016 10 20.53642 02 06 17.20 +00 35 32.9          18.9 VqEU025E23
     K16U00E `C2016 10 20.53900 02 06 17.56 +00 35 13.6          18.8 VqEU025Q62
     K16U00E `C2016 10 20.54876 02 06 16.79 +00 34 30.8          18.6 VqEU025Q62
     K16U00E `C2016 10 20.55300 02 06 16.45 +00 34 11.9          18.6 VqEU025Q62
 
Observer details:
926 Tenagra II Observatory.  Observers M. Schwartz, P. R. Holvorcem.  Measurer
    M. Schwartz.  0.81-m f/7 Ritchey-Chretien + CCD.
E23 Arcadia.  Observer A. Hidas.  0.35-m f/1.9 reflector + CCD.
G96 Mt. Lemmon Survey.  Observer R. A. Kowalski.  Measurers E. J. Christensen,
    D. C. Fuls, A. R. Gibbs, A. D. Grauer, J. A. Johnson, R. A. Kowalski,
    S. M. Larson, G. J. Leonard, R. G. Matheny, R. L. Seaman, F. C. Shelly.
    1.5-m reflector + 10K CCD.
J95 Great Shefford.  Observer P. Birtwhistle.  0.40-m f/6.0 Schmidt-Cassegrain
    + CCD.
Q62 iTelescope Observatory, Siding Spring.  Observers L. Buzzi, P. Concari,
    S. Foglia, G. Galli, M. Tombelli, S. M. Tilley.  0.15-m f/7 refractor
    + CCD, 0.70-m f/6.6 reflector + CCD.
 
Orbital elements:
2016 UE                                                  Earth MOID = 0.0037 AU
Epoch 2016 July 31.0 TT = JDT 2457600.5                 MPC
M 212.29382              (2000.0)            P               Q
n   0.90903931     Peri.  291.44223     -0.47419472     -0.88041630
a   1.0553932      Node   186.86635     +0.81546167     -0.43811435
e   0.1513328      Incl.    1.22224     +0.33190605     -0.18144685
P   1.08           H   25.1           G   0.15           U   7
Residuals in seconds of arc
161019 G96  0.1+  0.0     161019 Q62  0.0   0.0     161020 G96  0.1+  0.1+
161019 G96  0.1-  0.0     161020 J95  0.0   0.2-    161020 G96  0.0   0.1+
161019 G96  0.1+  0.0     161020 J95  0.1-  0.0     161020 E23  0.1+  0.0
161019 G96  0.1+  0.1-    161020 J95  0.0   0.2+    161020 E23  0.0   0.1+
161019 G96  0.0   0.1-    161020 926  0.2+  0.2-    161020 E23  0.1-  0.1+
161019 G96  0.0   0.1+    161020 926  0.4-  0.1-    161020 Q62  0.2+  0.1-
161019 G96  0.1+  0.1+    161020 926  0.2-  0.1+    161020 Q62  0.1+  0.1+
161019 Q62  0.1-  0.3-    161020 G96  0.3+  0.4-    161020 Q62  0.0   0.1-
161019 Q62  0.1+  0.3+    161020 G96  0.1+  0.1+

Ephemeris:
2016 UE                  a,e,i = 1.06, 0.15, 1                   q = 0.8957
Date    TT    R. A. (2000) Decl.     Delta      r     Elong.  Phase     V
2016 09 20    01 54 16.0 +12 57 14   0.1233  1.1087   146.1    30.3    22.1
...
2016 10 05    02 03 28.8 +10 30 11   0.07751 1.0730   159.5    19.1    20.7
...
2016 10 13    02 05 34.1 +07 02 00   0.05653 1.0528   167.0    12.3    19.7
...
2016 10 19    02 06 11.8 +02 17 34   0.04223 1.0375   169.2    10.3    19.0
2016 10 20    02 06 13.2 +01 11 46   0.03996 1.0349   168.7    10.9    18.9
2016 10 21    02 06 12.9 -00 01 27   0.03773 1.0323   167.9    11.7    18.8
...
2016 10 27    02 05 28.6 -11 25 20   0.02526 1.0169   155.8    23.6    18.3
...
2016 11 04    01 59 48.9 -54 24 34   0.01390 0.9965   109.8    69.5    18.2
...
2016 11 19    14 10 57.9 -42 57 10   0.03220 0.9604    29.8   149.2    25.8

A. U. Tomatic                (C) Copyright 2016 MPC           M.P.E.C. 2016-U25




More information about the Iaude mailing list